User: anonymous   Login
Location: Jesenik
(50.2330°N, 17.2000°E)
Time: 18:44:22
(UTC+02:00)
Language:

ISS - Orbit

View from above orbital plane
View from above orbital plane
View from above satellite
View from above satellite

Ground track
Ground track

The orbit data is extracted from the following two-line orbital elements,

1 25544U 98067A   19289.53795992  .00000118  00000-0  10060-4 0  9999
2 25544  51.6423 119.5283 0007118 153.8868 299.5662 15.50198557194085
Epoch (UTC): 16 October 2019 12:54:39
Eccentricity: 0.0007118
inclination: 51.6423°
perigee height: 411 km
apogee height: 421 km
right ascension of ascending node: 119.5283°
argument of perigee: 153.8868°
revolutions per day: 15.50198557
mean anomaly at epoch: 299.5662°
orbit number at epoch: 19408

The dashed part of the orbit path shows where the satellite is in the earth's shadow,  

DLR